COSMOS 1275 DEB, 12690

Orbit data source: Space-Track

COSMOS 1275 DEB, 12690 is space debris in LEO originally from a launch on Thu, 04 Jun 1981 UTC launched from the Plesetsk Missile And Space Complex (PKMTR). Debris objects in space refer to the collection of defunct objects orbiting the Earth. Examples of debris include non-operational satellites, rocket bodies, and fragments generated from explosions, collisions, or faulty payload assembly.

Loading next visibility...
Identifier
12690, 1981-053AJ
Orbit
LEO
Country
Flag of CISCIS
Related business
Manufacturer
Unknown
Mission
Spacecraft
Bus & Motor
Unknown
Mass
Unknown
Launch date (UTC)
1981-06-04 (45 years ago)
Launch vehicle
Unknown
Launch site
Plesetsk Missile And Space Complex (PKMTR)
Object type
Payload
Rocket body
Debris
Shape & HBR
Unknown shape, 0.3 m
Radar Cross Section
Medium (>0.1 m² and <1 m²)

Expand to show TLE details & history
Last TLE update: 10 hours ago

TLE from 10 hours ago
0 COSMOS 1275 DEB
1 12690U 81053AJ  26073.95618729  .00001758  00000-0  14599-2 0  9991
2 12690  82.9512  45.5690 0093544  20.9055  32.9653 13.86170675231077
Epoch: 2026-03-14T22:56Z
TLE epoch observation values (Epoch: 2026-03-14T22:56:54.581Z)
Latitude
53.957°
Longitude
-101.49713°
Altitude
893.678 km
Speed
7.439 km/s
True Right ascension
03h 41m 12s
True Declination
53° 47' 47"
Sunlit
Object was in daylight at epoch
Visualization orbit readout
Latitude
Unknown
Longitude
Unknown
Altitude
Unknown
Speed
Unknown
Apparent Right ascension
Unknown
Apparent Declination
Unknown
Sunlit
N/A
Visualization observer readout
Local Sidereal Time
13:12:24
Azimuth
Unknown
Elevation
Unknown
Doppler factor
Unknown
Orbital elements
Apogee altitude
1,007.663 km
Perigee altitude
870.765 km
Semi-major axis
7,317.351 km
Eccentricity
0.00935
Inclination
82.9512°
RAAN
45.569°
Arg. of periapsis
20.9055°
True anomaly
33.55434°
Mean anomaly
32.9653°
Eccentric anomaly
33.25924°
Mean motion
3.46747 °/min
Orbital period
103.82 mins
BSTAR
0.0014599
Loading maneuver chart data...
Computing Atmospheric mass density...

Documentation

Showing up to 5 results
|